DMSP 5D-2 F11 DEB, 29074

Orbit data source: Space-Track

DMSP 5D-2 F11 DEB, 29074 is space debris in SSO originally from a launch on Thu, 28 Nov 1991 UTC launched from the Air Force Western Test Range (AFWTR). Debris objects in space refer to the collection of defunct objects orbiting the Earth. Examples of debris include non-operational satellites, rocket bodies, and fragments generated from explosions, collisions, or faulty payload assembly.

Loading next visibility...
Identifier
29074, 1991-082BV
Orbit
SSO
Country
Flag of USUS
Related business
Manufacturer
Unknown
Mission
Spacecraft
Bus & Motor
Unknown
Mass
Unknown
Launch date (UTC)
1991-11-28 (35 years ago)
Launch vehicle
Unknown
Launch site
Air Force Western Test Range (AFWTR)
Object type
Payload
Rocket body
Debris
Shape & HBR
Unknown shape, 0.1 m
Radar Cross Section
Small (<0.1 m²)

Expand to show TLE details & history
Last TLE update: 3 days ago

TLE from 3 days ago
0 DMSP 5D-2 F11 DEB
1 29074U 91082BV  26262.06842117  .00004767  00000-0  10005-2 0  9991
2 29074  98.5720 357.0279 0006729 215.4295 144.6457 14.60122064144297
Epoch: 2026-09-19T01:38Z
TLE epoch observation values (Epoch: 2026-09-19T01:38:31.589Z)
Latitude
-0.00007°
Longitude
-25.58597°
Altitude
699.636 km
Speed
7.504 km/s
True Right ascension
23h 48m 06s
True Declination
0° 00' 00"
Sunlit
Object was in full shadow at epoch
Visualization orbit readout
Latitude
Unknown
Longitude
Unknown
Altitude
Unknown
Speed
Unknown
Apparent Right ascension
Unknown
Apparent Declination
Unknown
Sunlit
N/A
Visualization observer readout
Local Sidereal Time
06:57:02
Azimuth
Unknown
Elevation
Unknown
Doppler factor
Unknown
Orbital elements
Apogee altitude
694.634 km
Perigee altitude
685.122 km
Semi-major axis
7,068.015 km
Eccentricity
0.00067
Inclination
98.572°
RAAN
357.0279°
Arg. of periapsis
215.4295°
True anomaly
144.69029°
Mean anomaly
144.6457°
Eccentric anomaly
144.668°
Mean motion
3.65256 °/min
Orbital period
98.56 mins
BSTAR
0.0010005

Documentation

Showing up to 5 results
|